Overview Statistics Trail Chart Weather Telemetry Raw packets
 

This is the latest recevied weather packets stored in our database for station/object N3EG. If no packets are shown the sender has not sent any weather packets the latest 10 day(s).

<< 14 15 16 17 18 19 20 >>
Time Temp. Humidity Pressure Rain* Wind** Luminosity Snow
1788573603 16.67° C 74% 1015.1 hPa 0 mm - - -
1788573302 17.22° C 75% 1015 hPa 0 mm - - -
1788573003 17.22° C 74% 1014.9 hPa 0 mm - - -
1788572703 17.22° C 75% 1015 hPa 0 mm - - -
1788572402 17.22° C 76% 1015 hPa 0 mm - - -
1788572103 17.22° C 77% 1015 hPa 0 mm - - -
1788571803 17.22° C 79% 1014.9 hPa 0 mm - - -
1788571502 17.22° C 78% 1014.9 hPa 0 mm - - -
1788571203 17.22° C 79% 1014.9 hPa 0 mm - - -
1788570902 17.78° C 78% 1014.8 hPa 0 mm - - -
1788570634 17.78° C 77% 1014.7 hPa 0 mm - - -
1788570303 17.78° C 77% 1014.8 hPa 0 mm - - -
1788570002 18.33° C 75% 1014.7 hPa 0 mm - - -
1788569703 18.89° C 73% 1014.7 hPa 0 mm - - -
1788569403 18.89° C 69% 1014.6 hPa 0 mm - - -
1788569102 19.44° C 66% 1014.7 hPa 0 mm - - -
1788568803 19.44° C 66% 1014.9 hPa 0 mm - - -
1788568502 19.44° C 66% 1014.8 hPa 0 mm - - -
1788568202 19.44° C 68% 1014.9 hPa 0 mm - - -
1788567903 19.44° C 67% 1014.8 hPa 0 mm - - -
1788567602 19.44° C 67% 1014.7 hPa 0 mm - - -
1788567303 19.44° C 68% 1014.6 hPa 0 mm - - -
1788567003 20° C 66% 1014.5 hPa 0 mm - - -
1788566702 20.56° C 62% 1014.3 hPa 0 mm - - -
1788566403 20.56° C 60% 1014.2 hPa 0 mm - - -

* Rain latest hour (hover to see other rain measurements)
** Current wind speed in m/s (hover to see current wind gust speed)